Weather History for KAZE - October, 2012

Change the Weather History Date:

Sunday, October 7, 2012

  Actual Average Record
Temperature  
Mean Temperature 77 °F -  
Max Temperature 86 °F 89 °F 85 °F (2014)
Min Temperature 68 °F 68 °F 59 °F (2014)
Cooling Degree Days 12    
Growing Degree Days 27 (Base 50)    
Moisture  
Dew Point 68 °F    
Average Humidity 69    
Maximum Humidity 95    
Minimum Humidity 50    
Precipitation  
Precipitation 0.00 in - - ()
Sea Level Pressure  
Sea Level Pressure 29.98 in    
Wind  
Wind Speed 3 mph ()    
Max Wind Speed 7 mph    
Max Gust Speed -    
Visibility 9.0 miles    
Events      
Averages and records for this station are not official NWS values.
T = Trace of Precipitation, MM = Missing Value Source: Averaged Metar Reports

Daily Weather History Graph

Daily Weather History Graph

Search for Another Location

Airport or City:

Trip Planner

Search our weather history database for the weather conditions in past years. The results will help you decide how hot, cold, wet, or windy it might be!

Date:

Astronomy

Oct. 07, 2012 Rise Set
Actual Time 7:28 AM EDT 7:07 PM EDT
Civil Twilight 7:04 AM EDT 7:31 PM EDT
Nautical Twilight 6:36 AM EDT 7:59 PM EDT
Astronomical Twilight 6:07 AM EDT 8:28 PM EDT
Moon No Moon Rise 1:50 PM EDT
Length of Visible Light 12h 27m
Length of Day
11h 38m
Waning Gibbous, 56% of the Moon is Illuminated
Oct 7
Waning Gibbous
Oct 8
Last Quarter
Oct 15
New
Oct 21
First Quarter
Oct 29
Full

Hourly Weather History & Observations

Time (EDT) Temp. Heat Index Dew Point Humidity Pressure Visibility Wind Dir Wind Speed Gust Speed Precip Events Conditions
12:15 AM 73.4 °F - - N/A% 29.97 in 10.0 mi South 4.6 mph - N/A   Clear
12:35 AM 72.9 °F - - N/A% 29.97 in 10.0 mi South 4.6 mph - N/A   Clear
12:55 AM 72.5 °F - - N/A% 29.96 in 10.0 mi South 3.5 mph - N/A   Clear
1:15 AM 72.5 °F - - N/A% 29.96 in 10.0 mi Calm Calm - N/A   Clear
1:35 AM 72.0 °F - - N/A% 29.96 in 10.0 mi Calm Calm - N/A   Clear
1:55 AM 71.8 °F - - N/A% 29.97 in 10.0 mi South 3.5 mph - N/A   Clear
2:15 AM 71.8 °F - - N/A% 29.97 in 10.0 mi South 3.5 mph - N/A   Clear
2:35 AM 71.8 °F - - N/A% 29.97 in 7.0 mi South 3.5 mph - N/A   Clear
2:55 AM 71.6 °F - - N/A% 29.96 in 7.0 mi South 3.5 mph - N/A   Clear
3:15 AM 72.0 °F - - N/A% 29.96 in 7.0 mi SSW 4.6 mph - N/A   Clear
3:35 AM 72.1 °F - - N/A% 29.95 in 10.0 mi SSW 3.5 mph - N/A   Clear
3:55 AM 72.0 °F - - N/A% 29.95 in 10.0 mi Calm Calm - N/A   Clear
4:15 AM 72.0 °F - - N/A% 29.95 in 10.0 mi Calm Calm - N/A   Clear
4:35 AM 71.4 °F - - N/A% 29.95 in 7.0 mi Calm Calm - N/A   Clear
4:55 AM 70.9 °F - - N/A% 29.95 in 5.0 mi Calm Calm - N/A   Haze
5:15 AM 70.9 °F - - N/A% 29.96 in 5.0 mi Calm Calm - N/A   Haze
5:35 AM 70.9 °F - - N/A% 29.96 in 3.0 mi Calm Calm - N/A   Clear
5:55 AM 70.7 °F - - N/A% 29.97 in 1.8 mi Calm Calm - N/A   Scattered Clouds
6:15 AM 70.3 °F - - N/A% 29.97 in 4.0 mi Calm Calm - N/A   Haze
6:35 AM 70.2 °F - - N/A% 29.98 in 1.0 mi Calm Calm - N/A   Overcast
6:55 AM 70.0 °F - - N/A% 29.99 in 0.8 mi NNW 4.6 mph - N/A   Overcast
7:15 AM 69.8 °F - - N/A% 29.99 in 10.0 mi Calm Calm - N/A   Overcast
7:55 AM 68.9 °F - - N/A% 29.99 in 7.0 mi NNW 4.6 mph - N/A   Mostly Cloudy
8:15 AM 68.0 °F - - N/A% 30.00 in 10.0 mi NNW 5.8 mph - N/A   Scattered Clouds
8:35 AM 68.2 °F - - N/A% 30.00 in 10.0 mi NNW 4.6 mph - N/A   Clear
8:55 AM 69.1 °F - - N/A% 30.00 in 10.0 mi North 4.6 mph - N/A   Clear
9:35 AM 71.2 °F - 69.6 °F 95% 30.01 in 10.0 mi North 4.6 mph - N/A   Clear
9:55 AM 73.0 °F - 69.3 °F 88% 30.01 in 10.0 mi North 4.6 mph - N/A   Clear
10:15 AM 74.7 °F - 68.9 °F 82% 30.01 in 10.0 mi North 4.6 mph - N/A   Clear
10:35 AM 75.9 °F - 69.1 °F 79% 30.01 in 10.0 mi North 4.6 mph - N/A   Clear
10:55 AM 77.7 °F - 68.9 °F 74% 30.02 in 10.0 mi North 3.5 mph - N/A   Clear
11:15 AM 78.4 °F - 68.5 °F 72% 30.01 in 10.0 mi NNW 3.5 mph - N/A   Clear
11:35 AM 79.9 °F - 68.4 °F 68% 30.01 in 10.0 mi WNW 4.6 mph - N/A   Clear
11:55 AM 81.1 °F 84.0 °F 68.4 °F 65% 30.01 in 10.0 mi Calm Calm - N/A   Clear
12:15 PM 82.4 °F 85.4 °F 68.4 °F 62% 30.01 in 10.0 mi Calm Calm - N/A   Clear
12:55 PM 84.2 °F 87.3 °F 68.2 °F 58% 30.00 in 10.0 mi WNW 3.5 mph - N/A   Clear
1:15 PM 84.9 °F 88.2 °F 68.0 °F 57% 29.99 in 10.0 mi NNW 4.6 mph - N/A   Clear
1:35 PM 85.3 °F 88.2 °F 67.6 °F 55% 29.99 in 10.0 mi Calm Calm - N/A   Scattered Clouds
1:55 PM 85.8 °F 89.1 °F 67.8 °F 55% 29.98 in 10.0 mi WNW 6.9 mph - N/A   Scattered Clouds
2:15 PM 85.8 °F 88.5 °F 67.1 °F 53% 29.97 in 10.0 mi NNW 4.6 mph - N/A   Scattered Clouds
2:35 PM 85.5 °F 88.2 °F 66.9 °F 54% 29.96 in 10.0 mi NW 3.5 mph - N/A   Scattered Clouds
3:35 PM 86.9 °F 89.3 °F 66.4 °F 50% 29.95 in 10.0 mi NNW 6.9 mph - N/A   Mostly Cloudy
3:55 PM 85.6 °F 88.2 °F 66.9 °F 53% 29.95 in 10.0 mi WSW 4.6 mph - N/A   Scattered Clouds
4:15 PM 85.5 °F 87.9 °F 66.6 °F 53% 29.95 in 10.0 mi WNW 4.6 mph - N/A   Clear
4:35 PM 85.3 °F 88.2 °F 67.3 °F 55% 29.95 in 10.0 mi WSW 3.5 mph - N/A   Clear
4:55 PM 86.0 °F 88.8 °F 66.9 °F 53% 29.95 in 10.0 mi WSW 4.6 mph - N/A   Mostly Cloudy
5:15 PM 85.3 °F 87.9 °F 66.7 °F 54% 29.95 in 10.0 mi NW 6.9 mph - N/A   Scattered Clouds
5:35 PM 84.9 °F 87.6 °F 66.9 °F 55% 29.95 in 10.0 mi Calm Calm - N/A   Clear
5:55 PM 84.6 °F 87.4 °F 67.3 °F 56% 29.95 in 10.0 mi WNW 3.5 mph - N/A   Clear
6:15 PM 84.0 °F 86.8 °F 67.1 °F 57% 29.96 in 10.0 mi Calm Calm - N/A   Clear
6:35 PM 82.8 °F 85.5 °F 67.6 °F 60% 29.96 in 10.0 mi Calm Calm - N/A   Clear
6:55 PM 81.5 °F 84.2 °F 68.0 °F 63% 29.96 in 10.0 mi NNW 4.6 mph - N/A   Clear
7:15 PM 80.4 °F 83.0 °F 67.8 °F 65% 29.97 in 10.0 mi Calm Calm - N/A   Clear
7:35 PM 79.0 °F - 68.2 °F 69% 29.97 in 10.0 mi Calm Calm - N/A   Clear
7:55 PM 76.3 °F - 69.1 °F 78% 29.98 in 10.0 mi Calm Calm - N/A   Clear
8:15 PM 75.2 °F - 69.1 °F 81% 29.98 in 10.0 mi Calm Calm - N/A   Clear
8:35 PM 74.8 °F - 69.1 °F 82% 29.99 in 10.0 mi North 3.5 mph - N/A   Clear
8:55 PM 75.2 °F - 68.4 °F 79% 29.99 in 10.0 mi Calm Calm - N/A   Clear
9:15 PM 74.7 °F - 68.4 °F 81% 30.00 in 10.0 mi North 3.5 mph - N/A   Clear
9:35 PM 74.3 °F - 68.0 °F 81% 30.01 in 10.0 mi North 5.8 mph - N/A   Clear
9:55 PM 73.6 °F - 67.1 °F 80% 30.02 in 10.0 mi North 4.6 mph - N/A   Clear
10:15 PM 72.9 °F - 67.1 °F 82% 30.02 in 10.0 mi North 4.6 mph - N/A   Clear
10:35 PM 72.3 °F - 66.9 °F 83% 30.03 in 10.0 mi North 5.8 mph - N/A   Mostly Cloudy
10:55 PM 71.8 °F - 66.6 °F 84% 30.03 in 10.0 mi NNE 5.8 mph - N/A   Scattered Clouds
11:15 PM 71.6 °F - 66.6 °F 84% 30.03 in 10.0 mi NNE 3.5 mph - N/A   Scattered Clouds
11:35 PM 71.4 °F - 66.6 °F 85% 30.04 in 10.0 mi Calm Calm - N/A   Mostly Cloudy
11:55 PM 70.9 °F - 66.6 °F 86% 30.04 in 10.0 mi Calm Calm - N/A   Overcast